Location: Bühlhof
(48.7849°N, 8.6361°E)
Time: 23:30:06
(UTC+00:00)

ATLAS 3B R/B - Pass Details

Date: 19 January 2026
Orbit: 936 x 1258 km, 63.8° (Epoch: 9 February)

Event Time Altitude Azimuth Distance (km) Brightness Sun altitude
Rises 17:46:42 0° 296° (WNW) 4,191 6.7 -16.7°
Reaches altitude 10° 17:50:04 10° 309° (NW) 3,241 5.8 -17.3°
Maximum altitude 17:56:33 27° 4° (N) 2,223 4.2 -18.3°
Enters shadow 18:00:15 19° 43° (NE) 2,589 4.3 -18.9°
